Sparta, IL

7:45 AM CST on December 06, 2019 (GMT -0600)
Sparta Community-Hunter

Weather History for KSAR - November, 2019

Change the Weather History Date:

Tuesday, November 12, 2019

  Actual Average (KBLV) Record (KBLV)
Temperature  
Mean Temperature 15 °F -  
Max Temperature 20 °F 55 °F 78 °F (1989)
Min Temperature 10 °F 34 °F 15 °F (1976)
Degree Days  
Heating Degree Days 50    
Moisture  
Dew Point 7 °F    
Average Humidity 71    
Maximum Humidity 85    
Minimum Humidity 56    
Precipitation  
Precipitation 0.00 in - - ()
Sea Level Pressure  
Sea Level Pressure 30.55 in    
Wind  
Wind Speed 8 mph ()    
Max Wind Speed 18 mph    
Max Gust Speed 23 mph    
Visibility 10.0 miles    
Events      
Averages and records for this station are not official NWS values.
T = Trace of Precipitation, MM = Missing Value Source: Averaged Metar Reports

Daily Weather History Graph

Daily Weather History Graph

Search for Another Location

Airport or City:

Astronomy

Nov. 12, 2019 Rise Set
Actual Time 6:36 AM CST 4:49 PM CST
Civil Twilight 6:08 AM CST 5:17 PM CST
Nautical Twilight 5:36 AM CST 5:48 PM CST
Astronomical Twilight 5:05 AM CST 6:19 PM CST
Moon 5:15 PM CST (11/12) 6:28 AM CST (11/12)
Length of Visible Light 11h 08m
Length of Day
10h 12m
Full, 100% of the Moon is Illuminated
Nov 12
Full
Nov 19
Last Quarter
Nov 26
New
Dec 4
First Quarter
Dec 11
Full

Hourly Weather History & Observations

Time (CST) Temp. Windchill Dew Point Humidity Pressure Visibility Wind Dir Wind Speed Gust Speed Precip Events Conditions
12:15 AM 17.2 °F 1.2 °F 10.2 °F 74% 30.53 in 10.0 mi NNW 18.4 mph - N/A   Clear
12:35 AM 16.7 °F 1.5 °F 9.3 °F 73% 30.53 in 10.0 mi NNW 16.1 mph 20.7 mph N/A   Clear
12:55 AM 16.5 °F 3.0 °F 9.0 °F 72% 30.53 in 10.0 mi NW 12.7 mph 23.0 mph N/A   Clear
1:15 AM 16.2 °F 3.2 °F 8.6 °F 72% 30.53 in 10.0 mi NNW 11.5 mph 23.0 mph N/A   Clear
1:35 AM 15.8 °F 2.7 °F 8.6 °F 73% 30.54 in 10.0 mi NNW 11.5 mph 21.9 mph N/A   Clear
1:55 AM 15.3 °F 3.5 °F 8.2 °F 74% 30.54 in 10.0 mi NNW 9.2 mph - N/A   Clear
2:15 AM 14.9 °F 1.6 °F 7.3 °F 72% 30.54 in 10.0 mi NW 11.5 mph 19.6 mph N/A   Clear
2:35 AM 14.7 °F 1.4 °F 6.8 °F 71% 30.54 in 10.0 mi NNW 11.5 mph 20.7 mph N/A   Clear
2:55 AM 14.5 °F -0.2 °F 6.8 °F 71% 30.54 in 10.0 mi NNW 13.8 mph 18.4 mph N/A   Clear
3:15 AM 14.2 °F 0.0 °F 6.8 °F 73% 30.55 in 10.0 mi NNW 12.7 mph 18.4 mph N/A   Clear
3:35 AM 14.0 °F 2.0 °F 6.6 °F 72% 30.55 in 10.0 mi NNW 9.2 mph 20.7 mph N/A   Clear
3:55 AM 13.8 °F 1.8 °F 6.8 °F 74% 30.56 in 10.0 mi NW 9.2 mph 19.6 mph N/A   Clear
4:15 AM 13.6 °F 1.6 °F 6.4 °F 73% 30.56 in 10.0 mi NNW 9.2 mph 18.4 mph N/A   Clear
4:35 AM 13.1 °F 0.9 °F 6.4 °F 75% 30.56 in 10.0 mi NW 9.2 mph - N/A   Clear
4:55 AM 12.9 °F -0.9 °F 6.4 °F 75% 30.57 in 10.0 mi NNW 11.5 mph 21.9 mph N/A   Clear
5:15 AM 12.9 °F -0.2 °F 6.4 °F 75% 30.57 in 10.0 mi NNW 10.4 mph 16.1 mph N/A   Clear
5:35 AM 12.7 °F -0.4 °F 6.4 °F 76% 30.57 in 10.0 mi NNW 10.4 mph - N/A   Clear
5:55 AM 12.2 °F -0.2 °F 5.9 °F 76% 30.58 in 10.0 mi NNW 9.2 mph - N/A   Clear
6:15 AM 12.2 °F 1.7 °F 6.1 °F 76% 30.58 in 10.0 mi NNW 6.9 mph - N/A   Clear
6:35 AM 11.7 °F 0.0 °F 5.9 °F 78% 30.59 in 10.0 mi NNW 8.1 mph - N/A   Clear
6:55 AM 11.7 °F 1.1 °F 5.9 °F 78% 30.60 in 10.0 mi NNW 6.9 mph - N/A   Clear
7:15 AM 11.7 °F -0.9 °F 5.9 °F 78% 30.60 in 10.0 mi NNW 9.2 mph - N/A   Clear
7:35 AM 12.2 °F -0.2 °F 5.9 °F 76% 30.61 in 10.0 mi NNW 9.2 mph - N/A   Clear
7:55 AM 12.7 °F 0.4 °F 6.1 °F 75% 30.61 in 10.0 mi NNW 9.2 mph 16.1 mph N/A   Clear
8:15 AM 13.1 °F 0.1 °F 6.3 °F 74% 30.62 in 10.0 mi NNW 10.4 mph 17.3 mph N/A   Clear
8:35 AM 13.6 °F -0.7 °F 5.9 °F 71% 30.62 in 10.0 mi NNW 12.7 mph 16.1 mph N/A   Clear
8:55 AM 14.4 °F 1.6 °F 6.3 °F 70% 30.63 in 10.0 mi NNW 10.4 mph - N/A   Clear
9:15 AM 14.7 °F 3.8 °F 6.1 °F 69% 30.64 in 10.0 mi North 8.1 mph 16.1 mph N/A   Clear
9:35 AM 15.1 °F 4.2 °F 5.7 °F 66% 30.63 in 10.0 mi North 8.1 mph - N/A   Clear
9:55 AM 15.8 °F 3.4 °F 6.3 °F 66% 30.63 in 10.0 mi North 10.4 mph - N/A   Clear
10:15 AM 16.0 °F 4.4 °F 6.1 °F 65% 30.63 in 10.0 mi North 9.2 mph - N/A   Clear
10:35 AM 16.5 °F 6.0 °F 6.4 °F 65% 30.63 in 10.0 mi NNW 8.1 mph - N/A   Scattered Clouds
10:55 AM 16.7 °F 9.6 °F 5.7 °F 62% 30.62 in 10.0 mi North 4.6 mph - N/A   Scattered Clouds
11:15 AM 16.9 °F 7.4 °F 6.1 °F 63% 30.62 in 10.0 mi NNE 6.9 mph - N/A   Clear
11:35 AM 17.4 °F 9.1 °F 6.4 °F 62% 30.62 in 10.0 mi North 5.8 mph - N/A   Scattered Clouds
11:55 AM 18.1 °F 8.9 °F 6.4 °F 60% 30.61 in 10.0 mi North 6.9 mph - N/A   Clear
12:15 PM 18.3 °F 8.2 °F 6.3 °F 59% 30.61 in 10.0 mi NW 8.1 mph - N/A   Clear
12:35 PM 18.3 °F 11.5 °F 5.4 °F 57% 30.60 in 10.0 mi NW 4.6 mph - N/A   Clear
12:55 PM 18.9 °F 12.1 °F 6.3 °F 58% 30.59 in 10.0 mi NW 4.6 mph - N/A   Clear
1:15 PM 19.8 °F 11.9 °F 6.6 °F 57% 30.58 in 10.0 mi North 5.8 mph - N/A   Clear
1:35 PM 19.8 °F 9.9 °F 6.4 °F 56% 30.57 in 10.0 mi NNW 8.1 mph - N/A   Clear
1:55 PM 19.8 °F 9.9 °F 6.8 °F 57% 30.57 in 10.0 mi North 8.1 mph - N/A   Clear
2:15 PM 20.7 °F 13.0 °F 8.4 °F 59% 30.56 in 10.0 mi WNW 5.8 mph - N/A   Clear
2:35 PM 20.1 °F 11.3 °F 7.5 °F 58% 30.55 in 10.0 mi NW 6.9 mph - N/A   Clear
2:55 PM 19.8 °F 13.2 °F 7.3 °F 59% 30.54 in 10.0 mi WNW 4.6 mph - N/A   Clear
3:15 PM 20.1 °F - 7.7 °F 59% 30.54 in 10.0 mi Calm Calm - N/A   Clear
3:35 PM 20.1 °F 13.6 °F 7.5 °F 58% 30.53 in 10.0 mi NNW 4.6 mph - N/A   Clear
3:55 PM 20.1 °F 13.6 °F 6.6 °F 56% 30.54 in 10.0 mi North 4.6 mph - N/A   Clear
4:15 PM 19.6 °F 11.7 °F 6.8 °F 58% 30.54 in 10.0 mi North 5.8 mph - N/A   Clear
4:35 PM 18.9 °F 13.7 °F 5.9 °F 57% 30.54 in 10.0 mi North 3.5 mph - N/A   Clear
4:55 PM 18.0 °F 12.7 °F 6.1 °F 60% 30.54 in 10.0 mi NNE 3.5 mph - N/A   Clear
5:15 PM 16.7 °F 11.2 °F 6.4 °F 64% 30.54 in 10.0 mi NNE 3.5 mph - N/A   Clear
5:35 PM 15.3 °F - 7.0 °F 70% 30.54 in 10.0 mi Calm Calm - N/A   Clear
5:55 PM 15.1 °F - 8.4 °F 75% 30.54 in 10.0 mi Calm Calm - N/A   Clear
6:15 PM 14.0 °F - 8.6 °F 79% 30.54 in 10.0 mi Calm Calm - N/A   Clear
6:35 PM 12.7 °F - 8.4 °F 83% 30.53 in 10.0 mi Calm Calm - N/A   Clear
6:55 PM 12.0 °F 5.9 °F 7.2 °F 81% 30.53 in 10.0 mi East 3.5 mph - N/A   Clear
7:35 PM 13.1 °F 7.1 °F 5.9 °F 73% 30.52 in 10.0 mi SE 3.5 mph - N/A   Clear
7:55 PM 12.2 °F 6.1 °F 6.6 °F 78% 30.51 in 10.0 mi ESE 3.5 mph - N/A   Clear
8:15 PM 11.3 °F - 7.0 °F 83% 30.51 in 10.0 mi Calm Calm - N/A   Clear
8:35 PM 10.4 °F - 6.3 °F 83% 30.51 in 10.0 mi Calm Calm - N/A   Clear
8:55 PM 11.7 °F 5.5 °F 6.4 °F 80% 30.49 in 10.0 mi SSE 3.5 mph - N/A   Clear
9:15 PM 12.2 °F 6.1 °F 5.9 °F 76% 30.49 in 10.0 mi SE 3.5 mph - N/A   Clear
9:35 PM 11.1 °F - 6.4 °F 81% 30.49 in 10.0 mi Calm Calm - N/A   Clear
9:55 PM 10.4 °F - 6.4 °F 84% 30.49 in 10.0 mi Calm Calm - N/A   Clear
10:20 PM 10.6 °F 4.3 °F 6.8 °F 85% 30.48 in 10.0 mi SSE 3.5 mph - N/A   Clear
10:35 PM 11.8 °F 5.7 °F 7.7 °F 83% 30.47 in 10.0 mi SSE 3.5 mph - N/A   Clear
10:55 PM 11.8 °F 3.9 °F 7.5 °F 83% 30.46 in 10.0 mi SSE 4.6 mph - N/A   Clear
11:15 PM 12.0 °F 5.9 °F 7.3 °F 81% 30.46 in 10.0 mi SSE 3.5 mph - N/A   Clear
11:35 PM 12.2 °F 4.3 °F 6.8 °F 79% 30.46 in 10.0 mi SSE 4.6 mph - N/A   Clear
11:55 PM 11.3 °F 5.1 °F 6.8 °F 82% 30.46 in 10.0 mi SE 3.5 mph - N/A   Clear